Regional Weather Roundup
Issued by NWS

Home | Current Version | Previous Version | Graphics & Text | Print | Product List | Glossary On
Versions: 1 2 3 4 5 6 7 8 9 10 11 12 13 14 15 16 17 18 19 20 21 22 23 24 25 26 27 28 29 30 31 32 33 34 35 36 37 38 39 40 41 42 43 44 45 46 47 48 49 50
000
ASUS43 KLOT 220804
RWRIL

ILLINOIS REGIONAL WEATHER ROUNDUP
NATIONAL WEATHER SERVICE CHICAGO/ROMEOVILLE IL
300 AM CDT SAT JUL 22 2017

NOTE: "FAIR" INDICATES FEW OR NO CLOUDS BELOW 12,000 FEET WITH NO
SIGNIFICANT WEATHER AND/OR OBSTRUCTIONS TO VISIBILITY.

* THESE STATIONS ARE NOT UNDER NWS QUALITY CONTROL. THEY ALSO MAY NOT
  REPORT WEATHER SUCH AS PRECIPITATION OR FOG.

ILZ001-002-007-009-015-016-024-220900-
NORTHWEST ILLINOIS

CITY           SKY/WX    TMP DP  RH WIND       PRES   REMARKS
MOLINE         TSTM      70  67  90 E17       29.86S FOG
STERLING*      HVY RAIN  68  67  96 SE5       29.90R FOG
SAVANNA*       TSTM      69  69  99 S13       29.81F
$$

ILZ003-004-008-010-011-017-018-220900-
NORTH CENTRAL ILLINOIS

CITY           SKY/WX    TMP DP  RH WIND       PRES   REMARKS
ROCKFORD       TSTM      72  68  87 SW7       29.86S
FREEPORT*      CLOUDY    67  67 100 S15       29.82F
ROCHELLE*      TSTM      69  68  96 NW7       29.89R
DE KALB*       LGT RAIN  70  69  96 E8        29.82F
PERU*          HVY RAIN  71  65  80 NW10      29.87F
$$

ILZ005-006-012>014-019>023-220900-
NORTHEAST ILLINOIS

CITY           SKY/WX    TMP DP  RH WIND       PRES   REMARKS
CHICAGO-OHARE  TSTM      72  69  90 SW5       29.81F
CHICAGO-MIDWAY CLOUDY    74  72  93 E6        29.81F THUNDER
AURORA         LGT RAIN  72  70  93 W5        29.86R
LANSING*       LGT RAIN  71  68  90 E5        29.83F
JOLIET*        CLOUDY    74  72  96 W17G25    29.88R
WAUKEGAN       LGT RAIN  72  72 100 S10       29.78F FOG
DUPAGE AIRPORT TSTM      71  71 100 W12       29.86R FOG
WHEELING       LGT RAIN  72  72 100 NW5       29.84R
MORRIS*        RAIN      72  70  93 NW9       29.85R
ROMEOVILLE*    CLOUDY    71  68  90 W21G28    29.87R
NORTHERLY ISL    N/A     73  70  90 N12         N/A
$$

LMZ740>746-220900-
SOUTHERN LAKE MICHIGAN

STATION/POSITION SKY/WX   TEMP    WIND        PRES    VSBY  WAVE
                          AIR SEA DIR/SP/G                  HT/PER
                          (F)     (DEG/KT/KT) (MB)    (MI)  (FT/S)
SOUTHERN BUOY              72 70  100/ 14/ 16 1010.2          2/ 3
WILMETTE HARBOR            72 72  190/ 10/ 14   N/A           2/ 3
HARRISON CRIB              74     300/  6/  6   N/A
BURNHAM HARBOR             73                   N/A
CALUMET HARBOR             72     170/  8/ 10 1009.6F
BURNS HARBOR               72     180/  7/ 13 1010.8S
MICHIGAN CITY              71     160/ 10/ 13   N/A
MICHIGAN CITY 6N           72 74  210/ 10/ 12   N/A           1
ST. JOSEPH                 73 76  170/  6/  8 1010.5S         1/ 3
$$

ILZ025>027-034>036-040-047-049-050-058-095>099-220900-
WEST-CENTRAL ILLINOIS

CITY           SKY/WX    TMP DP  RH WIND       PRES   REMARKS
QUINCY         CLEAR     80  70  71 S8        29.82R HX  83
GALESBURG*     MOCLDY    78  70  76 N6        29.83R HX  81
MACOMB*        CLOUDY    82  69  64 SW10      29.80F HX  85
JACKSONVILLE*  PTCLDY    81  71  71 SW6       29.83R HX  84
PITTSFIELD*    CLEAR     83  71  66 SW8       29.84S HX  88
$$

ILZ028>032-037-038-041>044-048-051>054-059>061-220900-
CENTRAL ILLINOIS

CITY           SKY/WX    TMP DP  RH WIND       PRES   REMARKS
PONTIAC        MOCLDY    72  72  99 SE5       29.85R
BLOOMINGTON    CLOUDY    75  70  84 E7        29.83F
DECATUR        LGT RAIN  82  74  76 SW10      29.84F HX  88
PEORIA         CLOUDY    81  73  76 NE10G21   29.84R HX  86
LACON*         CLOUDY    73  69  87 NE3       29.86F
LINCOLN*       CLOUDY    83  75  78 S5        29.81F HX  90
SPRINGFIELD    CLOUDY    85  74  69 SW9       29.82S HX  92
TAYLORVILLE    CLOUDY    80  74  83 S6        29.85R HX  84
$$

ILZ033-039-045-046-055>057-062-063-220900-
EAST-CENTRAL ILLINOIS

CITY           SKY/WX    TMP DP  RH WIND       PRES   REMARKS
CHAMPAIGN      CLOUDY    79  75  87 S3        29.85S HX  83
RANTOUL*       CLOUDY    76  71  85 E5        29.86F
MATTOON        MOCLDY    81  77  88 S8        29.86R HX  88
PARIS*         PTCLDY    79  77  91 SW9       29.86F HX  84
$$

ILZ079-100>102-220900-
SOUTHWEST ILLINOIS

CITY           SKY/WX    TMP DP  RH WIND       PRES   REMARKS
ALTON          CLEAR     83  75  76 SW7       29.85S HX  91
BELLEVILLE     CLEAR     79  74  86 S5        29.87S HX  82
CAHOKIA*       CLEAR     85  73  67 SW7       29.85S HX  91
SPARTA*        CLEAR     81  75  83 S6        29.89S HX  86
$$

ILZ064>066-069>071-074>076-080>082-084>086-088>090-092>094-220900-
SOUTH-CENTRAL ILLINOIS

CITY           SKY/WX    TMP DP  RH WIND       PRES   REMARKS
CARBONDALE     CLEAR     81  76  84 SW6       29.89S HX  87
CAIRO*         CLEAR     82  75  78 SW8       29.90S HX  89
EFFINGHAM*     CLEAR     82  76  82 S6        29.89R HX  88
MARION         CLEAR     82  77  83 SW5       29.90S HX  91
MT. VERNON     CLEAR     79  75  87 SW5       29.89R HX  83
CENTRALIA*     CLEAR     82  77  83 SW7       29.87S HX  91
SALEM*         CLEAR     84  75  75 SW7       29.88S HX  91
METROPOLIS*    CLEAR     80  76  85 SW3       29.91F HX  86
$$

ILZ067-068-072-073-078-083-087-091-220900-
SOUTHEAST ILLINOIS

CITY           SKY/WX    TMP DP  RH WIND       PRES   REMARKS
LAWRENCEVILLE  CLOUDY    78  75  90 S3        29.89R HX  81
FLORA*         CLEAR     80  76  89 SW3       29.88S HX  85
FAIRFIELD*     CLEAR     76  76  98 CALM      29.88R
HARRISBURG*    CLEAR     78  76  93 CALM      29.90R HX  81
ROBINSON*      CLOUDY    78  75  90 SW7       29.89R HX  82
CARMI*         CLEAR     76  75  97 S5        29.89R FOG
$$

ABBREVIATIONS USED IN REMARKS
   TC - TEMPERATURE IN CELSIUS
  WCI - WIND CHILL INDEX
   HX - HEAT INDEX
  VSB - VISIBILITY
$$





USA.gov is the U.S. government's official web portal to all federal, state and local government web resources and services.